Temp
66 65 67 69 74 57 67 69 60 65 75 70 61 60 62 61 58 54 66 63 67 75 78 82 82 81 83 86 87 87 86 87 86 85 86 87 87 87 87 86 86 85 86 85 86 86 86 86 86 85 84 84 83 83 83 82 82 82 82 81 82 82 82
65 68 68 68 71 72 69 61 67 76 78 74 63 53 57 55 51 55 62 60 63 64 60 80 80 79 82 83 84 87 86 86 85 85 86 86 87 88 88 87 86 86 86 86 87 88 88 87 87 86 84 85 85 85 84 83 82 81 82 83 83 83 82
64 68 70 69 73 75 70 69 80 65 56 55 62 58 48 49 48 52 58 62 64 67 66 74 76 78 81 82 83 85 85 85 85 86 86 87 88 88 87 87 86 86 87 87 86 88 89 88 87 87 86 87 87 86 86 87 84 85 85 86 85 83 84
62 65 67 58 66 74 76 77 71 77 70 62 57 58 60 58 51 51 54 60 57 70 72 77 77 80 82 85 83 83 85 85 86 86 87 87 86 86 87 88 88 88 88 89 89 89 89 89 88 89 89 89 88 88 86 86 87 86 85 85 84 83 84
61 57 63 62 67 64 66 65 65 69 68 73 70 68 61 56 53 53 53 52 60 71 78 79 79 81 83 85 84 82 84 86 88 88 88 87 87 87 87 88 89 88 88 90 90 90 91 91 90 90 90 89 89 89 88 88 86 86 86 86 86 84 84
56 60 63 62 61 61 60 62 63 68 64 60 55 53 68 64 58 50 53 52 64 76 80 81 82 85 86 87 87 87 86 88 88 88 88 88 87 87 88 89 90 90 89 90 91 90 91 91 90 90 90 90 90 89 89 89 89 88 88 87 85 84 84
55 61 63 65 64 62 62 63 63 63 63 64 60 49 56 63 64 66 63 57 61 79 80 79 83 87 89 89 89 89 90 89 89 89 91 89 88 88 90 90 91 91 90 90 90 89 88 89 88 89 90 90 89 89 90 89 89 88 89 89 87 85 84
58 62 64 62 63 63 59 59 60 61 58 57 56 57 59 59 62 59 59 53 62 78 80 82 82 81 83 82 85 85 91 91 89 89 89 88 87 87 90 91 92 91 91 90 88 87 86 87 87 88 89 89 90 90 90 90 89 89 90 90 88 86 85
51 56 58 59 62 63 59 58 58 58 59 59 59 60 60 55 62 63 58 51 61 76 77 80 81 80 81 84 86 86 83 86 88 89 88 89 86 86 88 89 89 90 90 87 85 85 84 85 89 88 88 89 90 89 90 90 90 91 90 90 89 87 87
37 38 41 46 51 53 55 55 55 56 55 55 58 56 58 51 60 63 60 60 69 77 76 79 83 84 81 83 86 87 86 84 86 86 87 86 86 84 86 87 88 88 87 86 85 84 84 87 88 86 86 89 90 90 90 91 91 90 90 91 89 88 88
44 45 40 44 49 52 50 53 54 55 56 57 56 55 53 54 59 59 63 65 68 71 76 77 81 83 84 86 84 83 84 85 84 82 83 86 84 84 86 85 87 86 85 85 84 84 87 89 89 89 89 89 90 88 88 91 91 90 89 89 87 88 88
46 50 48 51 50 47 51 50 52 56 54 54 53 53 55 54 55 53 64 67 67 70 75 78 80 83 83 83 82 84 83 83 85 85 81 83 87 86 85 85 85 84 84 84 84 84 86 88 89 89 90 90 89 87 88 89 91 91 90 88 87 86 86
50 51 51 51 50 50 51 52 52 52 55 54 51 53 56 55 52 54 60 60 61 69 76 80 81 81 82 87 89 87 84 85 85 83 84 85 87 87 86 83 83 84 84 83 84 85 86 88 88 88 89 89 89 88 89 89 91 90 89 87 86 87 86
47 49 50 51 49 50 51 52 53 54 55 55 56 55 58 57 54 57 59 60 62 68 74 75 77 77 77 78 80 80 82 83 79 80 82 86 88 88 87 85 86 84 85 84 83 84 84 86 86 89 88 87 88 88 88 89 88 90 88 87 85 86 85
44 48 51 51 50 50 49 52 54 55 56 57 57 58 59 60 58 60 60 59 59 70 70 70 74 74 75 77 80 80 76 77 79 79 81 83 86 89 88 86 86 85 85 85 84 83 83 85 86 87 87 87 89 90 90 90 88 90 89 86 86 86 85
41 48 49 50 52 52 50 50 52 54 55 54 57 57 59 57 56 58 60 57 61 67 69 71 72 73 72 73 73 74 75 76 76 76 78 80 82 85 88 90 87 85 86 85 84 85 86 87 87 87 86 88 89 90 90 90 90 91 89 87 87 84 85
39 47 47 47 48 49 47 49 54 57 58 60 59 59 58 56 57 57 58 64 60 62 67 68 70 72 72 71 71 70 72 72 74 74 75 77 80 83 84 86 87 88 88 87 85 87 88 88 88 89 88 89 87 89 88 90 90 90 89 89 86 84 85
39 45 46 48 45 38 43 59 65 62 59 59 57 55 54 55 57 55 57 57 61 63 64 65 68 70 69 69 72 73 71 70 72 74 75 77 79 81 85 88 89 89 88 88 88 88 88 89 91 91 90 90 89 91 91 90 90 88 87 87 86 85 84
35 44 45 42 36 41 54 58 61 63 63 62 60 56 53 54 55 55 56 57 57 59 61 66 69 70 73 74 73 74 75 73 73 73 75 76 77 79 83 85 89 88 86 87 87 87 90 91 90 91 90 91 90 91 90 89 89 86 86 86 86 85 84
41 38 41 31 38 51 55 58 59 62 62 61 61 53 52 53 54 53 52 54 56 58 60 63 70 72 75 76 76 74 75 74 73 73 75 77 79 79 84 86 86 85 88 87 89 87 90 91 92 92 91 92 91 91 92 90 89 88 86 85 85 85 84
31 38 41 43 49 49 52 52 52 54 51 53 56 49 49 52 54 53 51 53 55 56 59 62 68 73 75 73 74 77 74 73 75 75 77 79 79 81 84 89 88 87 89 89 90 88 90 91 91 91 92 93 92 91 90 90 88 89 87 85 85 84 84
40 36 36 37 39 35 44 50 56 58 57 58 56 55 51 53 54 54 52 51 53 54 57 60 64 71 70 69 72 74 73 74 74 76 79 81 82 83 87 88 88 86 88 89 89 90 90 90 92 92 92 92 91 89 89 90 89 89 87 85 85 84 84
36 36 32 35 34 39 47 50 53 57 58 57 58 56 49 50 53 54 52 51 52 53 53 55 63 70 68 68 68 70 71 72 74 74 76 80 82 83 85 88 87 88 86 88 89 89 89 90 90 91 91 91 91 87 87 90 89 88 86 85 85 84 85
35 36 34 34 42 38 48 52 54 57 59 56 54 44 45 47 51 52 50 49 51 52 53 55 61 63 61 60 63 67 68 71 75 73 75 77 80 82 85 88 89 86 85 85 87 88 89 88 90 90 92 90 87 86 88 90 89 87 86 85 86 87 87
35 35 37 42 43 51 50 50 53 55 55 52 44 42 44 48 49 50 49 49 51 52 52 54 50 54 57 61 65 67 69 73 73 75 76 78 80 80 83 84 84 85 86 87 88 90 88 87 91 91 91 89 86 86 87 87 87 88 88 87 87 86 86
33 37 35 39 46 48 49 52 53 52 48 42 44 45 50 50 48 49 50 48 50 51 52 52 52 54 58 60 65 66 69 70 71 72 75 77 79 82 81 80 82 86 89 87 88 90 87 88 90 90 88 85 84 84 85 86 87 90 89 87 87 86 85
38 38 36 36 32 45 50 50 52 49 43 40 44 49 52 52 49 48 48 49 49 50 50 54 55 56 58 57 58 64 69 70 70 71 72 73 74 76 78 79 81 84 84 86 88 88 89 90 90 90 89 84 84 84 84 85 89 89 88 88 86 86 85
33 34 33 35 40 44 50 48 41 44 44 48 50 50 49 51 49 47 47 49 50 50 50 52 54 56 56 55 57 61 67 69 70 72 72 74 75 76 78 80 80 81 80 82 84 86 89 88 88 88 87 83 83 83 83 85 87 87 87 86 85 85 85
35 35 38 42 47 48 49 49 47 48 50 51 52 52 51 49 48 50 48 48 50 50 51 53 54 53 54 54 56 57 63 67 68 69 71 72 73 74 75 77 78 79 79 79 80 81 83 84 85 86 86 83 82 82 82 83 84 84 85 85 85 85 85
43 44 46 48 48 49 49 50 51 49 50 52 53 52 50 51 50 50 48 49 50 51 52 52 54 54 54 53 54 56 60 65 67 69 71 72 73 75 76 76 77 79 79 79 78 77 77 80 82 83 85 85 81 80 81 82 84 84 84 84 84 84 85
38 35 45 44 45 47 50 49 50 52 53 52 53 52 52 51 51 51 51 51 51 52 52 54 53 53 54 53 54 55 57 61 65 67 68 70 71 71 72 73 74 75 77 76 75 75 75 77 79 81 81 82 80 80 80 82 83 83 83 83 83 84 84
37 36 43 46 48 49 52 51 49 49 50 52 53 53 53 53 52 52 52 52 52 53 52 54 54 54 56 54 53 54 56 57 61 65 67 68 70 71 73 73 73 74 74 74 73 74 73 75 77 78 78 79 79 80 82 83 84 82 81 82 83 83 84
41 46 46 46 48 50 50 52 52 51 50 50 52 53 53 52 51 52 53 54 52 53 53 55 55 55 57 56 54 55 55 57 59 63 66 69 69 70 72 73 73 73 73 74 73 74 73 75 76 76 76 77 78 78 79 80 82 83 82 81 81 81 83
37 36 39 43 37 39 46 49 51 52 52 52 52 53 52 52 51 51 51 52 54 54 55 56 57 56 57 57 56 55 56 56 58 63 65 67 68 69 71 73 73 73 73 73 73 73 74 75 75 75 75 76 77 78 79 79 81 82 81 81 81 81 82
35 42 45 45 43 42 45 48 51 52 52 52 51 50 49 50 52 52 51 50 52 52 54 57 57 58 57 58 57 56 57 57 58 62 64 65 66 68 69 70 71 72 72 72 72 72 72 73 74 74 74 75 76 77 78 78 80 81 81 81 82 83 82
44 46 45 47 44 42 46 50 51 52 53 52 51 51 51 50 51 52 52 52 50 51 53 56 59 59 58 58 58 56 57 59 58 61 64 66 67 68 69 69 69 70 71 71 71 71 72 73 73 73 74 75 75 77 77 78 78 79 79 81 82 82 82
41 46 46 47 48 48 49 51 52 52 53 54 51 50 50 50 51 53 52 52 54 53 53 55 58 60 58 58 58 58 57 60 61 62 64 65 66 67 68 69 68 69 69 70 71 71 72 72 72 73 73 74 75 76 77 79 79 79 79 80 81 81 81
MSLP
1009.23 1009.47 1009.23 1008.67 1007.79 1012.11 1008.63 1009.31 1010.95 1009.39 1007.67 1009.51 1011.55 1011.79 1011.51 1011.63 1012.43 1012.47 1009.27 1010.11 1008.63 1006.39 1004.99 1004.19 1003.91 1004.43 1004.03 1003.47 1003.55 1003.59 1003.63 1003.71 1003.95 1004.47 1004.47 1004.55 1004.59 1004.79 1005.11 1005.51 1005.79 1006.11 1006.43 1006.83 1007.11 1007.43 1007.79 1008.19 1008.59 1008.79 1008.99 1009.27 1009.87 1010.59 1011.23 1011.87 1012.27 1012.59 1012.99 1013.35 1013.71 1013.95 1014.27
1009.39 1008.87 1008.83 1008.71 1008.15 1008.07 1008.59 1010.63 1008.47 1007.19 1006.99 1008.11 1010.79 1013.47 1012.35 1013.23 1013.83 1011.79 1010.15 1010.55 1009.51 1009.55 1009.59 1003.43 1004.19 1004.95 1004.23 1003.91 1003.67 1003.35 1003.31 1003.43 1004.15 1003.95 1003.87 1003.91 1003.99 1003.99 1003.99 1004.23 1004.47 1004.95 1005.47 1005.91 1006.27 1006.59 1006.87 1007.15 1007.43 1008.07 1008.59 1008.83 1009.39 1009.91 1010.47 1011.31 1011.87 1012.39 1012.59 1012.95 1013.31 1013.59 1013.99
1009.47 1008.51 1008.07 1008.19 1007.27 1006.95 1008.19 1008.19 1005.23 1009.63 1012.39 1012.95 1010.23 1012.03 1014.39 1014.11 1013.99 1012.47 1010.71 1009.71 1008.95 1007.79 1007.47 1005.51 1005.03 1004.59 1004.07 1003.75 1003.51 1003.31 1003.51 1003.67 1003.67 1003.39 1003.27 1003.15 1003.07 1003.39 1003.87 1004.07 1004.39 1004.75 1005.15 1005.51 1005.87 1006.07 1006.11 1006.47 1006.99 1007.39 1007.83 1008.43 1008.99 1009.51 1009.87 1010.35 1011.03 1011.31 1011.79 1012.23 1012.67 1013.07 1013.39
1009.75 1009.23 1008.47 1010.23 1008.39 1006.79 1006.51 1006.23 1007.51 1006.11 1007.99 1009.71 1011.47 1010.59 1009.95 1010.79 1012.43 1012.99 1011.51 1010.39 1010.23 1006.19 1005.75 1004.55 1004.51 1003.63 1002.99 1002.71 1003.07 1003.43 1002.95 1002.87 1002.79 1002.67 1002.67 1002.91 1003.19 1003.27 1003.31 1003.47 1003.75 1004.03 1004.19 1004.43 1004.79 1005.23 1005.71 1006.11 1006.59 1006.91 1007.39 1007.91 1008.47 1008.83 1009.47 1009.95 1010.35 1010.79 1011.27 1011.71 1012.11 1012.63 1012.83
1010.11 1010.35 1008.79 1008.79 1007.87 1008.35 1008.35 1008.79 1008.87 1007.91 1007.83 1006.19 1007.23 1007.99 1009.43 1010.83 1011.43 1011.47 1011.35 1011.83 1008.55 1005.31 1003.63 1003.87 1003.55 1003.03 1002.67 1002.15 1002.39 1002.59 1002.47 1002.11 1001.79 1001.75 1001.87 1002.11 1002.35 1002.55 1002.55 1002.63 1002.91 1003.19 1003.51 1003.79 1004.07 1004.35 1004.75 1005.23 1005.87 1006.55 1007.11 1007.55 1007.95 1008.47 1009.03 1009.39 1009.99 1010.35 1010.79 1011.07 1011.51 1011.95 1012.31
1010.39 1008.91 1008.79 1009.19 1009.47 1009.79 1009.99 1009.63 1008.75 1007.51 1008.31 1009.79 1011.19 1010.91 1007.63 1008.19 1009.99 1010.91 1011.47 1010.95 1007.19 1003.67 1002.35 1002.35 1002.35 1001.79 1001.51 1001.23 1001.31 1001.43 1001.59 1001.35 1001.11 1001.15 1001.27 1001.39 1001.79 1001.75 1001.75 1001.83 1001.99 1002.31 1002.67 1002.99 1003.27 1003.75 1004.35 1005.15 1005.71 1006.11 1006.31 1006.91 1007.59 1007.95 1008.19 1008.75 1009.27 1009.75 1010.11 1010.55 1010.95 1011.43 1011.83
1010.67 1009.07 1009.03 1008.79 1009.31 1009.71 1009.55 1009.31 1009.11 1009.07 1008.91 1008.31 1008.75 1011.31 1009.35 1008.11 1007.51 1007.39 1008.03 1009.75 1007.39 1002.59 1001.91 1002.47 1001.67 1000.75 1000.47 1000.27 1000.31 1000.55 1000.39 1000.59 1000.51 1000.47 1000.31 1000.47 1000.63 1000.87 1000.99 1001.19 1001.43 1001.67 1002.03 1002.35 1002.79 1003.43 1004.03 1004.43 1004.71 1005.11 1005.71 1006.23 1006.59 1007.03 1007.55 1007.99 1008.51 1008.91 1009.15 1009.63 1010.15 1010.75 1011.31
1010.43 1009.35 1008.83 1009.23 1009.11 1009.35 1010.27 1010.31 1010.11 1009.99 1010.15 1010.67 1010.63 1010.03 1009.19 1008.71 1007.55 1009.07 1009.03 1010.31 1007.11 1002.79 1001.51 1001.47 1001.71 1001.75 1001.59 1001.35 1001.07 1000.95 999.83 999.63 999.87 999.99 1000.07 1000.27 1000.63 1000.59 1000.47 1000.51 1000.79 1001.11 1001.47 1002.07 1002.79 1003.59 1003.87 1004.19 1004.59 1004.95 1005.19 1005.43 1005.91 1006.47 1006.87 1007.31 1007.91 1008.23 1008.67 1009.11 1009.63 1010.23 1010.75
1010.91 1009.67 1009.59 1009.55 1009.27 1008.91 1009.87 1010.15 1010.55 1010.83 1010.67 1010.55 1010.15 1009.87 1009.51 1010.39 1007.35 1007.23 1008.83 1010.27 1007.91 1003.19 1001.91 1001.39 1001.31 1002.07 1002.15 1001.39 1000.79 1000.87 1001.27 1000.55 1000.15 1000.03 999.91 999.75 999.91 1000.23 1000.47 1000.67 1000.71 1000.91 1001.51 1002.23 1002.67 1003.03 1003.43 1003.79 1004.03 1004.35 1004.75 1005.11 1005.43 1005.83 1006.23 1006.71 1007.11 1007.51 1008.07 1008.51 1009.15 1009.67 1010.19
1013.03 1012.63 1012.07 1010.71 1010.39 1010.63 1010.79 1011.11 1011.07 1011.03 1011.11 1011.11 1009.99 1009.99 1009.23 1010.51 1007.39 1006.75 1007.51 1007.51 1004.79 1002.59 1002.15 1002.03 1001.55 1001.11 1001.47 1001.07 1000.55 1000.35 1000.39 1000.63 1000.51 1000.43 1000.39 1000.35 1000.39 1000.55 1000.47 1000.39 1000.63 1001.07 1001.11 1001.39 1001.99 1002.55 1002.95 1003.23 1003.51 1003.91 1004.27 1004.47 1004.75 1005.15 1005.51 1005.79 1006.55 1007.11 1007.55 1007.91 1008.47 1009.15 1009.71
1012.03 1012.43 1014.43 1014.39 1013.15 1011.87 1011.55 1010.71 1010.79 1010.83 1010.95 1010.87 1010.95 1011.11 1010.99 1009.51 1008.23 1007.67 1005.95 1005.79 1004.87 1004.15 1003.15 1002.91 1001.91 1001.39 1000.91 1000.23 1000.51 1000.91 1000.71 1000.27 1000.31 1000.51 1000.47 1000.39 1000.51 1000.55 1000.59 1000.59 1000.39 1000.47 1001.03 1001.47 1001.59 1001.95 1002.23 1002.43 1002.71 1003.11 1003.59 1004.07 1004.39 1004.79 1005.23 1005.51 1005.87 1006.43 1006.95 1007.51 1008.11 1008.67 1009.19
1013.59 1012.55 1012.99 1012.71 1012.95 1013.03 1011.83 1011.79 1010.91 1010.39 1010.83 1011.07 1011.55 1011.15 1009.71 1010.35 1009.99 1009.23 1005.91 1005.07 1005.59 1004.51 1003.31 1002.67 1001.91 1000.99 1000.71 1000.39 1000.39 1000.27 1000.19 1000.11 999.87 999.79 1000.07 999.83 999.75 999.87 1000.27 1000.67 1001.07 1001.27 1001.15 1001.11 1001.43 1001.71 1001.87 1002.11 1002.23 1002.55 1002.87 1003.23 1003.75 1004.27 1004.75 1005.07 1005.51 1006.03 1006.51 1007.07 1007.67 1008.23 1008.79
1012.87 1012.43 1012.51 1012.55 1012.71 1012.55 1012.03 1011.51 1011.15 1010.95 1010.47 1010.79 1011.35 1010.79 1010.23 1010.23 1010.59 1009.11 1007.31 1006.91 1007.27 1004.95 1003.15 1002.11 1001.51 1001.15 1000.91 999.91 999.15 999.39 999.83 999.71 999.67 1000.03 1000.23 1000.15 999.79 999.67 999.95 1000.19 1000.27 1000.55 1000.87 1001.03 1001.27 1001.47 1001.51 1001.59 1002.03 1002.31 1002.67 1003.11 1003.55 1004.03 1004.39 1004.87 1005.23 1005.59 1005.91 1006.63 1007.31 1007.87 1008.43
1013.47 1012.63 1012.47 1012.39 1012.71 1012.23 1011.71 1011.27 1010.91 1010.47 1010.23 1010.07 1009.99 1009.99 1009.47 1009.55 1009.91 1009.39 1008.23 1007.51 1007.23 1006.07 1004.11 1003.67 1002.83 1002.27 1002.11 1001.43 1000.71 1000.39 1000.11 1000.11 1000.67 1000.59 1000.31 999.91 999.63 999.51 999.59 999.67 999.67 999.75 999.79 1000.07 1000.43 1000.79 1001.23 1001.43 1001.63 1001.95 1002.39 1002.79 1003.07 1003.47 1003.91 1004.23 1004.71 1005.03 1005.59 1006.27 1006.87 1007.39 1007.99
1013.35 1012.43 1012.07 1012.07 1012.03 1011.79 1011.59 1010.51 1010.15 1009.83 1009.55 1009.31 1009.11 1008.91 1008.47 1008.39 1008.83 1008.43 1008.31 1008.23 1007.71 1005.07 1004.63 1004.63 1003.19 1002.75 1002.31 1001.83 1001.23 1001.15 1001.31 1001.19 1000.91 1000.75 1000.35 999.79 999.31 998.79 998.75 998.95 999.07 999.03 999.15 999.31 999.83 1000.47 1000.87 1001.03 1001.11 1001.31 1001.63 1001.87 1002.27 1002.75 1003.27 1003.75 1004.27 1004.51 1004.99 1005.83 1006.39 1006.91 1007.39
1013.31 1011.83 1011.87 1011.43 1011.11 1010.99 1011.03 1010.51 1009.91 1009.43 1009.15 1009.31 1008.31 1008.43 1007.79 1008.47 1008.67 1008.11 1008.03 1008.55 1007.27 1005.63 1004.95 1004.31 1003.63 1003.23 1003.11 1002.83 1002.63 1002.27 1001.87 1001.51 1001.43 1001.35 1000.75 1000.07 999.47 998.79 998.11 997.83 998.15 998.51 998.71 999.03 999.55 999.91 1000.07 1000.27 1000.59 1000.87 1001.35 1001.63 1002.11 1002.55 1002.83 1003.27 1003.59 1003.95 1004.67 1005.31 1005.95 1006.55 1006.95
1013.39 1011.87 1012.11 1011.99 1011.51 1010.87 1010.23 1009.15 1008.51 1008.11 1007.79 1007.35 1007.59 1007.71 1008.03 1008.67 1008.63 1008.51 1007.47 1005.75 1007.55 1007.07 1005.55 1005.23 1004.19 1003.71 1003.31 1003.27 1002.99 1003.07 1002.55 1002.27 1001.95 1001.67 1001.11 1000.43 999.55 998.67 998.03 997.71 997.71 997.83 997.95 998.11 998.51 998.71 998.99 999.39 999.83 999.95 1000.31 1001.11 1001.67 1001.75 1002.27 1002.51 1003.07 1003.75 1004.31 1004.83 1005.59 1006.31 1006.63
1013.39 1012.39 1012.23 1011.63 1011.39 1011.71 1009.27 1006.11 1004.99 1006.15 1006.91 1007.19 1007.79 1008.39 1008.99 1009.15 1008.67 1008.91 1008.51 1008.19 1007.35 1006.83 1006.39 1005.87 1005.03 1004.07 1003.95 1003.63 1002.83 1002.39 1002.59 1002.59 1002.15 1001.51 1000.87 1000.11 999.39 998.55 997.67 997.11 996.95 996.99 997.19 997.27 997.47 997.71 997.99 998.15 998.35 998.87 999.51 1000.15 1000.63 1001.07 1001.71 1002.27 1002.91 1003.43 1004.07 1004.67 1005.27 1005.91 1006.27
1014.83 1012.75 1012.31 1011.83 1012.07 1009.59 1007.63 1006.99 1006.43 1006.07 1006.11 1006.43 1006.91 1008.47 1009.39 1009.31 1008.91 1008.87 1008.55 1008.19 1008.27 1007.63 1006.95 1005.67 1004.59 1003.95 1003.15 1002.59 1002.51 1002.23 1001.83 1001.87 1001.71 1001.39 1000.63 999.79 999.03 998.31 997.43 996.95 996.47 996.39 996.75 997.03 997.23 997.67 997.87 998.19 998.71 999.31 999.99 1000.39 1000.99 1001.39 1001.71 1002.31 1002.75 1003.51 1003.95 1004.47 1005.03 1005.47 1005.99
1014.35 1013.99 1012.35 1012.75 1009.87 1008.23 1007.95 1007.31 1007.39 1006.67 1006.59 1006.71 1006.67 1008.63 1009.23 1009.35 1009.39 1009.67 1009.51 1008.95 1008.43 1007.75 1006.95 1005.79 1004.07 1003.19 1002.51 1002.03 1001.83 1001.79 1001.51 1001.35 1001.39 1000.91 1000.03 999.03 998.39 997.87 996.75 996.35 996.15 996.11 996.07 996.51 996.91 997.19 997.11 997.79 998.35 998.71 999.39 999.71 1000.39 1000.91 1001.11 1001.91 1002.51 1003.11 1003.67 1004.27 1004.75 1005.11 1005.71
1015.55 1012.91 1011.55 1009.75 1008.83 1008.75 1008.11 1008.11 1008.79 1008.75 1008.79 1008.35 1007.23 1008.07 1009.35 1009.59 1009.47 1009.87 1009.95 1009.27 1008.51 1007.75 1006.71 1005.75 1004.19 1002.67 1002.07 1002.43 1001.83 1001.11 1001.31 1001.07 1000.55 1000.15 999.31 998.43 997.79 997.19 996.31 995.63 995.71 995.75 995.75 996.11 996.39 996.95 997.27 997.43 997.99 998.47 998.87 999.35 1000.03 1000.71 1001.35 1001.75 1002.31 1002.87 1003.47 1004.19 1004.51 1004.75 1005.07
1014.11 1013.67 1012.67 1011.39 1010.43 1010.95 1009.03 1009.03 1008.35 1008.35 1008.43 1008.23 1008.11 1007.71 1008.71 1009.15 1009.43 1009.75 1009.87 1009.59 1008.87 1008.19 1006.95 1005.91 1004.55 1002.63 1002.83 1002.83 1001.95 1001.35 1001.15 1000.71 1000.35 999.51 998.71 997.83 997.03 996.47 995.75 995.23 995.27 995.59 995.79 996.03 996.35 996.79 997.39 997.71 997.75 998.07 998.55 999.15 999.83 1000.59 1001.15 1001.55 1002.15 1002.71 1003.19 1003.71 1003.91 1004.31 1004.63
1014.67 1013.95 1013.79 1011.35 1010.27 1009.07 1009.27 1009.15 1008.95 1008.43 1008.43 1008.43 1007.83 1007.63 1008.19 1009.59 1009.75 1009.83 1009.83 1009.51 1009.03 1008.79 1008.19 1006.99 1004.55 1002.71 1003.07 1002.83 1002.63 1001.95 1001.51 1000.87 1000.07 999.79 998.91 997.79 996.91 996.35 995.87 995.35 995.47 995.47 995.75 995.87 996.27 996.75 997.31 997.95 997.95 997.99 998.43 998.99 999.79 1000.55 1000.91 1001.31 1001.79 1002.47 1002.91 1003.23 1003.55 1003.91 1004.15
1015.11 1013.67 1012.99 1011.67 1009.87 1010.11 1009.35 1009.15 1008.87 1008.51 1008.23 1008.71 1008.63 1009.47 1008.51 1010.27 1009.91 1010.11 1010.23 1010.03 1009.39 1008.87 1008.27 1007.39 1005.35 1004.63 1004.99 1004.75 1003.71 1002.43 1001.83 1000.83 999.87 999.75 999.15 998.11 997.31 996.55 995.91 995.35 995.07 995.35 995.71 996.19 996.63 996.99 997.35 997.63 997.59 998.03 998.43 999.03 999.75 1000.39 1000.75 1000.99 1001.71 1002.19 1002.39 1002.51 1002.63 1002.99 1003.55
1014.35 1014.07 1012.47 1010.99 1009.87 1008.87 1009.75 1009.67 1009.23 1008.99 1008.83 1009.03 1009.11 1007.83 1009.27 1010.47 1010.31 1010.27 1010.63 1010.47 1009.71 1009.19 1008.71 1008.07 1008.03 1007.07 1006.39 1004.67 1003.35 1002.47 1001.63 1000.67 1000.23 999.63 998.91 998.15 997.43 997.11 996.51 996.19 995.59 995.75 995.79 995.91 996.23 996.39 996.79 997.19 997.47 997.83 998.35 999.07 999.87 1000.27 1000.59 1001.03 1001.35 1001.27 1001.31 1001.67 1002.23 1002.75 1003.19
1014.87 1013.03 1012.75 1010.95 1009.27 1009.87 1010.67 1009.47 1009.47 1009.43 1009.43 1008.79 1007.83 1010.35 1010.87 1010.51 1010.39 1010.55 1010.67 1010.87 1009.87 1009.43 1008.91 1008.55 1008.03 1007.19 1005.99 1004.87 1003.47 1002.71 1001.83 1000.95 1000.67 1000.07 999.35 998.47 997.79 997.11 996.79 996.59 996.35 996.11 995.99 996.15 996.19 996.35 996.75 997.07 997.23 997.67 998.23 999.15 999.67 1000.15 1000.55 1000.75 1000.55 1000.39 1000.91 1001.43 1001.95 1002.51 1003.03
1013.71 1012.59 1012.31 1011.79 1011.31 1009.99 1010.59 1009.99 1008.91 1010.07 1009.55 1010.79 1012.55 1010.99 1010.43 1010.55 1010.51 1010.87 1010.87 1010.79 1010.31 1009.91 1008.91 1008.23 1007.83 1006.91 1005.99 1005.43 1004.59 1003.23 1001.71 1001.11 1001.03 1000.51 999.79 999.19 998.75 998.35 997.83 997.43 997.03 996.59 996.67 996.67 996.51 996.63 996.75 996.87 997.15 997.51 998.11 999.11 999.63 999.91 1000.31 1000.23 1000.07 1000.31 1000.67 1001.23 1001.83 1002.35 1002.83
1012.75 1012.67 1011.87 1011.11 1011.43 1012.11 1011.07 1010.71 1010.99 1011.67 1012.11 1011.87 1011.19 1011.23 1010.63 1010.47 1010.79 1011.19 1011.15 1010.59 1010.43 1010.15 1009.67 1008.51 1007.59 1007.03 1006.47 1005.43 1004.35 1003.31 1001.99 1001.43 1001.03 1000.51 999.91 999.31 998.99 998.75 998.31 998.03 997.75 997.27 997.35 997.23 997.23 997.07 996.95 997.03 997.19 997.47 998.03 999.03 999.43 999.79 1000.03 999.75 999.91 1000.23 1000.71 1001.19 1001.67 1002.27 1002.67
1014.11 1012.15 1012.39 1012.95 1011.91 1011.55 1011.47 1011.43 1011.75 1011.67 1011.51 1011.43 1011.31 1011.11 1011.03 1010.91 1010.91 1010.87 1011.03 1010.75 1010.27 1010.11 1009.75 1008.67 1008.07 1007.39 1006.71 1006.23 1005.19 1004.55 1002.99 1001.99 1001.47 1001.03 1000.47 999.99 999.63 999.39 999.19 998.87 998.31 997.99 998.03 998.07 997.95 997.95 997.75 997.63 997.59 997.71 997.95 998.67 999.31 999.79 999.83 999.75 1000.11 1000.39 1000.79 1001.19 1001.71 1002.11 1002.39
1013.87 1013.39 1012.47 1012.27 1011.79 1011.51 1011.27 1011.51 1011.39 1011.55 1011.35 1011.15 1011.11 1011.19 1011.03 1010.75 1010.91 1010.95 1010.87 1010.67 1010.31 1009.99 1009.47 1008.71 1008.07 1007.75 1007.15 1006.35 1005.39 1004.59 1003.51 1002.47 1001.83 1001.27 1000.67 1000.23 999.95 999.67 999.39 999.23 998.99 998.67 998.47 998.47 998.63 998.87 998.79 998.47 998.39 998.35 998.47 998.67 999.47 999.79 999.75 999.87 999.95 1000.23 1000.63 1001.15 1001.59 1001.83 1001.99
1013.39 1012.75 1012.47 1012.55 1012.55 1011.87 1010.71 1011.43 1011.51 1011.27 1011.07 1011.19 1011.15 1011.03 1010.99 1010.83 1010.59 1010.51 1010.43 1010.43 1010.31 1009.83 1009.43 1008.67 1008.39 1007.75 1007.15 1006.83 1006.07 1005.03 1004.11 1003.27 1002.55 1001.95 1001.51 1001.03 1000.75 1000.55 1000.39 1000.11 999.67 999.47 999.31 999.43 999.63 999.63 999.71 999.43 999.19 999.15 999.27 999.35 999.67 999.87 1000.03 999.91 1000.03 1000.23 1000.55 1000.95 1001.39 1001.63 1001.91
1014.03 1013.95 1012.75 1012.47 1011.99 1011.47 1010.67 1010.83 1011.19 1011.23 1011.19 1011.03 1010.87 1010.99 1010.83 1010.63 1010.43 1010.27 1010.07 1010.15 1010.07 1009.75 1009.39 1008.67 1008.27 1007.83 1007.27 1007.07 1006.23 1005.39 1004.75 1004.19 1003.43 1002.47 1001.95 1001.55 1001.23 1000.91 1000.59 1000.43 1000.23 1000.07 1000.11 1000.27 1000.35 1000.35 1000.39 1000.19 999.91 999.87 999.99 1000.15 1000.19 1000.15 1000.07 1000.03 1000.07 1000.47 1000.91 1001.03 1001.31 1001.55 1001.67
1013.43 1012.27 1012.31 1012.31 1011.79 1010.75 1010.75 1010.51 1010.63 1010.83 1010.91 1011.03 1010.71 1010.47 1010.51 1010.35 1010.23 1009.99 1009.75 1009.95 1010.07 1009.87 1009.55 1008.75 1008.27 1007.83 1007.19 1006.83 1006.43 1005.79 1005.11 1004.51 1003.91 1003.03 1002.43 1001.99 1001.75 1001.47 1001.19 1000.95 1000.75 1000.87 1000.83 1000.83 1000.87 1000.91 1000.91 1000.63 1000.51 1000.47 1000.59 1000.59 1000.59 1000.63 1000.55 1000.43 1000.39 1000.59 1000.95 1001.23 1001.39 1001.51 1001.55
1013.79 1014.15 1013.75 1013.51 1013.55 1012.47 1011.23 1010.83 1010.67 1010.67 1010.59 1010.67 1010.39 1010.15 1010.27 1010.35 1010.35 1010.19 1010.15 1009.91 1009.79 1009.79 1009.35 1008.83 1008.31 1007.95 1007.27 1006.63 1006.19 1005.75 1005.31 1005.03 1004.43 1003.55 1002.99 1002.59 1002.31 1002.07 1001.75 1001.47 1001.35 1001.31 1001.27 1001.27 1001.31 1001.35 1001.27 1001.07 1001.03 1001.03 1001.03 1000.99 1000.91 1000.79 1000.75 1000.67 1000.55 1000.75 1001.07 1001.23 1001.39 1001.63 1001.55
1014.63 1013.79 1013.55 1013.55 1014.03 1013.55 1012.55 1011.71 1010.91 1010.71 1010.59 1010.47 1010.19 1010.11 1010.39 1010.35 1010.35 1010.35 1010.47 1010.27 1009.87 1009.71 1009.19 1008.79 1008.43 1007.91 1007.55 1006.91 1006.19 1005.59 1005.15 1005.11 1004.87 1004.15 1003.43 1003.07 1002.87 1002.75 1002.51 1002.31 1002.15 1002.03 1001.99 1001.83 1001.75 1001.79 1001.75 1001.59 1001.55 1001.51 1001.43 1001.27 1001.19 1001.11 1000.95 1000.87 1000.83 1000.91 1000.95 1001.19 1001.31 1001.39 1001.55
1014.11 1013.95 1013.75 1013.47 1013.59 1013.23 1012.19 1011.47 1010.99 1010.63 1010.35 1010.23 1009.87 1009.79 1010.23 1010.35 1010.43 1010.43 1010.35 1010.27 1010.27 1009.91 1009.39 1008.59 1008.15 1007.91 1007.55 1007.07 1006.39 1006.03 1005.43 1005.07 1004.95 1004.55 1003.91 1003.47 1003.27 1003.11 1002.95 1002.95 1002.95 1002.75 1002.59 1002.47 1002.35 1002.31 1002.11 1001.99 1001.99 1001.87 1001.75 1001.59 1001.55 1001.31 1001.15 1001.07 1001.03 1001.07 1001.11 1001.15 1001.39 1001.43 1001.43
1014.91 1014.15 1013.83 1013.35 1012.83 1012.27 1011.79 1011.27 1010.79 1010.43 1010.03 1009.83 1009.87 1009.79 1010.07 1010.23 1010.31 1010.31 1010.31 1010.19 1010.03 1009.87 1009.39 1008.67 1007.95 1007.63 1007.43 1007.07 1006.75 1006.39 1006.03 1005.43 1005.07 1004.67 1004.35 1004.07 1003.79 1003.71 1003.63 1003.47 1003.51 1003.43 1003.23 1002.99 1002.75 1002.59 1002.51 1002.47 1002.35 1002.23 1002.19 1002.07 1001.83 1001.63 1001.43 1001.23 1001.11 1001.15 1001.19 1001.19 1001.35 1001.47 1001.51
Wind_Speed
4 4 4 2 4 11 11 13 17 16 9 9 9 4 2 2 6 13 5 8 8 7 13 10 7 8 10 12 15 16 16 16 15 15 16 18 18 19 18 19 19 21 20 19 19 20 20 20 21 22 22 20 20 18 18 19 19 18 19 18 17 16 15
6 4 5 6 6 4 4 13 14 9 8 11 9 10 5 10 11 5 7 15 9 9 11 9 13 9 10 11 13 15 16 15 15 15 16 17 19 20 21 22 22 22 22 23 22 21 23 24 25 23 21 19 18 18 20 20 19 19 19 18 18 17 16
4 7 4 8 10 10 10 8 9 11 10 14 13 7 13 12 13 9 7 5 11 12 11 3 13 14 14 11 10 12 13 14 16 16 17 18 20 18 18 20 18 18 19 20 21 22 24 23 22 22 20 20 19 19 20 22 22 22 21 18 18 15 16
4 4 6 14 11 12 14 7 9 12 7 12 11 13 6 5 10 6 9 11 13 11 11 9 7 12 15 14 10 11 13 16 16 15 16 17 17 17 18 18 18 19 22 24 25 24 24 24 23 21 23 21 23 23 21 20 20 19 20 20 18 18 18
4 6 7 13 11 12 14 12 11 9 10 2 9 9 13 10 10 9 6 8 9 10 6 10 14 12 10 11 9 9 12 14 16 16 16 16 17 17 18 18 19 21 22 23 23 23 22 22 20 18 20 23 22 21 21 22 22 22 22 21 19 17 16
7 2 7 6 8 6 4 2 8 10 14 11 13 14 11 13 10 7 8 13 4 1 5 11 13 12 14 13 13 11 12 15 15 14 16 15 15 18 18 19 20 20 21 23 23 22 19 19 20 23 22 21 22 23 22 22 21 20 22 20 18 16 16
8 7 5 7 6 6 4 4 5 4 4 5 10 11 10 12 13 10 10 9 11 4 0 6 8 11 15 15 14 14 11 13 14 15 17 17 17 19 20 20 19 19 20 21 21 22 23 23 23 25 23 22 23 24 23 22 22 23 22 21 19 17 16
13 14 9 2 2 6 5 4 2 3 1 3 4 5 6 7 11 11 10 13 8 5 5 7 7 8 8 8 7 8 10 10 13 15 15 16 15 16 18 18 17 17 17 18 16 18 20 19 19 22 21 22 22 21 22 22 24 23 22 19 18 18 17
6 8 5 4 3 3 2 2 2 3 2 4 5 7 4 3 9 14 10 14 7 7 3 6 10 5 7 10 9 7 10 8 5 8 11 13 15 14 17 17 18 17 16 17 16 17 17 17 19 20 21 21 22 22 21 22 22 22 20 19 18 18 19
11 13 12 9 7 2 2 1 2 2 3 6 2 7 5 7 6 13 13 10 6 5 4 7 12 13 7 8 8 6 7 9 7 5 5 6 7 9 14 16 16 16 17 15 15 15 16 19 20 19 18 21 21 21 23 22 21 20 20 19 19 18 19
7 3 4 2 4 5 2 1 5 3 2 1 1 1 3 8 2 8 8 6 7 8 8 8 11 12 17 15 6 8 8 7 6 6 6 7 7 8 12 13 13 13 12 14 16 17 18 22 22 20 20 20 20 19 21 21 20 20 19 18 18 18 19
14 12 9 8 8 10 10 10 8 3 3 2 3 5 4 7 4 11 2 3 11 9 4 7 10 12 10 9 5 6 6 6 7 7 8 10 11 12 10 9 9 11 13 14 16 17 20 20 20 19 20 20 21 20 21 21 20 19 16 18 18 18 18
13 13 11 8 7 9 10 11 12 13 7 5 7 8 9 8 6 5 9 8 6 4 5 8 10 8 7 11 13 7 7 7 4 3 5 8 12 13 14 14 15 15 16 15 15 17 18 21 21 21 20 19 17 16 18 18 18 20 18 18 18 18 18
14 15 12 8 10 11 12 13 13 13 11 10 9 10 10 12 10 8 14 14 15 5 10 8 10 10 10 12 9 8 8 7 6 6 7 9 9 11 14 15 17 16 18 18 17 17 17 20 21 21 19 18 19 20 20 21 20 19 17 18 18 18 18
12 12 9 10 11 12 14 12 12 12 11 10 9 9 11 11 12 13 14 14 15 6 2 8 10 10 9 8 8 7 6 7 7 7 9 11 11 11 14 15 17 17 18 18 16 16 18 19 20 20 19 20 20 22 20 21 20 19 19 17 18 19 18
9 5 7 7 8 9 12 14 13 13 10 9 5 5 2 3 6 6 9 10 7 2 7 10 10 9 7 6 7 8 8 9 9 9 11 12 13 15 15 14 17 17 19 17 17 19 22 22 21 20 16 18 19 21 20 21 20 19 19 18 19 18 16
10 6 1 4 7 10 13 16 14 12 11 6 3 3 3 2 2 7 8 6 8 9 9 9 6 5 3 4 5 7 9 10 10 11 12 13 15 17 16 15 13 17 20 20 20 22 22 22 22 23 20 20 20 20 20 20 18 19 20 19 18 16 16
6 2 3 4 6 11 10 4 9 16 13 10 7 3 6 6 4 3 7 9 11 11 11 9 7 5 3 5 5 5 7 9 11 12 13 14 15 16 17 17 16 16 15 16 19 21 22 23 25 22 22 22 19 19 18 18 20 18 18 17 17 17 16
5 6 7 7 11 10 5 3 5 2 6 7 9 12 10 8 12 13 12 12 14 14 13 13 11 11 10 8 6 7 7 9 11 14 15 14 13 14 15 15 16 15 15 15 16 17 18 19 17 17 17 15 15 16 17 18 17 16 17 17 16 16 16
7 7 7 7 7 2 2 6 8 4 1 2 11 10 11 12 12 11 10 13 14 15 15 15 12 10 10 9 8 5 8 9 11 13 13 14 14 14 13 14 13 13 18 17 18 18 17 18 18 19 19 18 19 19 19 19 18 17 16 16 16 16 15
7 7 8 9 7 3 6 4 4 6 2 3 3 6 6 11 13 12 11 14 15 17 16 16 14 12 8 7 9 4 9 12 12 13 14 14 14 13 13 12 11 9 10 12 14 12 15 19 18 19 19 18 19 18 18 18 18 18 17 16 16 17 17
9 9 7 5 3 5 7 4 5 5 6 7 7 1 6 10 13 12 13 13 15 18 18 18 19 14 6 8 4 8 12 13 13 13 13 12 11 9 10 8 9 10 10 11 12 16 16 17 18 17 18 18 19 18 18 18 18 18 18 17 17 16 16
3 9 8 7 5 2 4 4 8 7 6 9 7 6 3 7 12 13 15 15 16 16 16 19 18 6 8 5 6 10 14 14 10 12 12 11 11 7 5 10 12 14 13 15 17 15 17 17 16 17 19 20 18 17 17 18 18 18 17 16 16 15 16
7 7 8 7 3 1 2 8 10 9 9 7 6 9 5 9 11 11 15 15 16 18 17 16 11 10 6 8 9 12 15 11 8 10 12 11 11 9 5 3 11 13 13 14 16 18 19 18 17 18 19 18 17 15 16 17 18 17 17 16 16 16 16
9 11 9 7 5 2 8 11 13 11 9 4 7 8 5 7 9 10 11 15 13 15 16 12 10 11 12 12 13 13 12 8 10 10 9 9 9 9 7 5 6 12 14 16 18 20 15 15 17 18 17 16 16 15 16 16 19 18 17 14 14 14 14
9 9 9 9 4 4 10 11 8 6 1 7 5 6 3 6 9 10 10 13 13 14 14 12 9 12 15 17 14 12 8 10 10 10 10 10 10 8 9 10 5 8 11 13 16 17 14 17 17 17 16 14 13 13 15 17 17 15 13 12 13 13 12
4 8 7 5 6 3 14 16 3 8 2 4 3 4 5 6 9 9 12 10 11 13 15 16 15 16 18 16 16 15 10 12 11 11 12 12 13 12 10 9 10 4 8 10 13 14 15 18 16 16 18 15 14 14 15 14 13 11 12 12 12 12 13
4 7 7 2 4 7 9 9 4 4 4 4 6 7 6 6 7 7 9 10 11 12 12 16 17 17 17 18 17 16 12 11 12 12 13 13 13 12 11 9 10 8 8 8 9 10 12 12 12 14 15 13 13 14 13 9 9 9 10 11 11 12 12
3 1 3 3 5 6 2 2 3 4 3 3 6 7 7 6 6 6 5 10 13 13 14 15 15 15 15 15 14 14 12 12 13 13 14 15 14 13 13 12 12 11 9 10 9 9 7 6 6 8 11 13 15 13 9 9 10 10 10 11 11 12 13
5 6 1 4 7 9 3 3 2 3 3 1 6 8 8 6 5 4 5 10 12 14 14 14 13 12 14 17 17 17 15 12 13 13 15 16 15 15 14 14 13 12 12 12 12 12 11 9 7 5 7 11 12 9 9 8 9 10 11 11 11 12 12
4 3 6 9 11 11 5 6 4 3 1 3 6 9 8 7 7 7 6 8 12 14 14 11 11 14 14 14 13 13 13 14 13 13 14 14 15 15 15 14 13 12 12 13 13 13 12 10 9 8 8 7 8 7 7 8 8 8 9 10 9 9 10
4 4 6 10 12 9 3 4 1 4 7 9 7 5 6 6 7 7 7 8 11 12 12 13 12 13 12 12 14 13 12 12 12 11 12 14 14 14 14 14 14 13 13 13 13 12 11 9 9 9 8 7 6 5 5 6 9 9 7 8 9 9 10
5 3 5 13 13 2 5 1 5 7 7 9 12 8 7 8 9 9 8 5 9 12 13 13 13 14 14 12 12 12 12 13 13 11 12 12 12 12 13 14 14 13 13 13 13 13 11 8 8 8 8 6 5 5 3 2 6 9 8 8 7 6 6
5 7 8 12 8 5 8 11 12 12 12 12 13 11 9 7 7 8 11 11 8 11 13 12 13 14 14 15 14 14 11 12 15 14 11 10 11 12 11 12 13 13 13 13 13 12 10 8 8 7 7 5 4 4 3 2 0 5 6 6 7 7 5
7 10 10 9 8 12 13 14 15 14 11 12 15 12 9 9 7 8 9 10 11 12 14 11 12 13 13 16 16 16 14 14 13 11 11 11 11 11 11 11 12 12 11 11 11 11 9 8 8 7 6 6 5 4 3 2 1 2 4 5 4 5 4
6 9 11 10 8 9 12 13 15 14 12 13 16 12 6 7 8 8 9 8 10 12 13 13 11 12 13 14 15 16 16 14 15 12 10 11 10 10 10 10 10 10 10 11 11 10 8 8 8 7 7 7 6 5 4 2 1 2 2 3 4 4 3
9 12 12 11 12 13 12 12 12 12 13 11 11 11 6 6 7 7 8 8 8 10 12 14 15 13 14 14 13 14 14 16 15 15 13 9 11 11 10 11 11 10 9 8 8 8 8 8 8 7 7 7 7 6 5 3 0 2 2 2 4 4 5
Wind_Direction
168 97 350 291 236 218 186 192 208 216 205 208 226 259 231 3 234 247 179 240 245 308 278 248 229 209 216 214 216 212 209 203 198 200 200 200 199 198 196 198 197 195 192 188 191 191 190 189 190 193 191 188 186 183 184 186 189 187 189 191 193 194 195
145 350 297 243 236 279 152 205 212 178 190 218 222 235 186 223 236 215 177 234 236 213 264 204 202 210 221 209 206 210 211 199 195 201 200 198 200 198 196 196 194 190 189 190 192 193 192 192 192 190 188 183 180 184 185 185 187 189 190 191 193 194 194
306 322 258 240 240 222 239 240 156 180 186 206 207 227 226 218 225 239 212 241 247 231 227 158 193 201 215 216 212 209 200 195 203 208 204 200 199 197 196 197 192 187 190 192 192 195 196 196 192 191 186 183 186 188 190 190 190 190 189 191 194 194 193
329 288 193 223 208 205 228 242 197 208 229 213 199 205 257 239 245 222 235 216 244 228 234 231 215 204 218 218 204 209 202 194 202 207 205 200 196 197 198 196 195 191 192 193 193 195 195 193 189 190 186 188 191 190 188 192 192 191 189 191 190 193 194
270 215 190 218 222 213 200 210 223 199 223 286 227 203 212 209 231 228 229 232 234 237 178 230 235 228 231 228 216 199 199 204 207 204 201 199 197 198 199 197 195 193 194 195 195 195 195 192 188 185 187 192 193 191 192 192 191 190 191 192 191 191 189
228 216 62 79 66 44 18 327 230 223 213 196 204 221 199 224 226 224 211 240 249 209 166 208 219 229 224 217 222 217 204 205 205 203 201 196 196 200 200 200 197 195 194 193 195 193 190 186 185 185 190 190 190 192 193 192 193 192 192 191 191 188 189
261 284 302 301 293 253 256 233 246 355 309 296 224 226 198 212 228 233 239 268 250 222 121 233 245 225 218 220 216 220 212 203 204 203 200 199 196 197 200 200 198 196 193 191 189 184 182 185 185 186 186 188 191 192 191 192 193 195 194 193 189 185 186
275 266 275 250 222 173 178 193 282 328 291 17 332 327 338 246 207 210 219 237 252 212 194 270 243 256 300 316 300 263 235 205 201 203 203 201 196 201 204 204 200 197 193 187 181 179 181 182 182 183 187 189 189 190 191 191 194 194 193 191 188 185 185
231 226 143 143 70 126 100 118 92 42 5 320 295 274 265 268 221 217 216 239 232 226 172 199 264 248 250 261 258 256 267 275 253 227 210 202 197 194 198 198 197 192 182 175 176 176 179 181 184 184 188 188 187 189 189 191 193 191 190 189 189 188 188
199 198 201 200 176 159 343 278 172 143 4 14 327 215 201 247 214 217 227 237 237 239 171 215 232 261 248 237 250 234 236 248 240 230 225 232 221 206 201 199 192 188 186 181 180 180 183 185 188 185 185 186 188 188 190 190 189 188 188 187 188 186 189
276 13 23 335 295 322 261 237 286 286 143 112 240 320 278 233 331 233 231 247 249 230 203 214 229 247 261 261 200 212 225 233 222 201 205 209 215 216 214 205 200 193 186 182 180 181 184 188 189 186 186 187 187 186 186 187 188 187 185 184 184 186 187
266 286 293 311 315 287 288 292 286 259 264 205 203 212 202 31 336 251 157 193 250 250 212 228 229 225 241 258 245 239 219 213 225 210 196 209 202 202 191 197 196 196 197 191 185 182 186 188 189 187 187 187 187 184 183 185 185 183 182 182 181 183 185
273 275 280 290 283 262 268 273 277 282 274 234 227 238 255 271 249 268 321 322 299 338 284 291 283 290 276 265 282 333 343 322 297 277 244 214 207 203 195 189 189 194 192 194 188 186 186 185 184 184 184 185 184 181 179 181 183 184 179 178 179 182 184
275 271 269 260 264 271 265 259 264 262 264 258 243 254 248 237 237 243 268 293 282 285 291 317 312 318 312 309 325 315 309 319 337 307 282 263 241 215 205 198 196 193 195 192 188 183 180 184 182 181 180 179 179 177 179 182 184 183 175 178 178 182 186
267 269 267 249 246 261 267 261 255 254 255 259 253 255 256 245 241 244 256 263 277 261 301 308 301 306 308 299 291 310 322 328 326 315 289 275 262 238 205 199 200 197 196 189 184 181 182 185 181 180 180 180 181 182 181 181 182 181 179 176 179 183 189
277 263 254 253 248 251 262 266 256 251 242 236 223 230 328 246 230 239 230 250 261 28 336 311 289 289 308 322 332 330 332 329 325 307 293 282 269 259 248 212 200 198 194 185 178 183 187 187 184 182 176 177 180 185 183 184 182 180 181 179 184 186 189
268 267 279 286 280 267 257 244 230 225 217 215 172 186 54 46 320 237 213 217 31 319 332 313 293 282 282 314 324 322 316 310 302 293 285 278 271 261 252 246 217 199 194 185 182 188 186 185 185 186 175 175 181 183 182 183 178 180 183 184 182 182 184
264 307 303 281 250 235 240 9 192 195 203 176 166 130 37 34 21 315 324 321 335 335 324 311 299 299 301 296 302 297 303 305 297 288 284 278 273 266 257 247 232 208 193 187 186 184 182 184 185 180 175 180 181 179 175 172 177 180 179 182 181 183 185
267 294 296 237 225 233 58 35 44 170 139 132 123 98 58 30 25 5 347 343 338 325 316 306 291 280 277 267 287 307 306 304 296 292 289 287 286 271 254 239 226 200 182 184 181 181 184 180 170 168 172 172 165 170 170 172 173 170 175 178 179 179 182
266 278 232 219 216 57 220 57 36 33 89 24 140 104 67 39 32 2 344 335 329 324 317 312 303 279 272 263 249 309 319 324 311 304 299 301 298 284 255 230 213 196 188 184 180 181 177 169 171 171 168 170 169 172 171 170 174 174 172 175 178 179 180
235 238 231 236 355 304 208 200 32 12 354 337 241 174 97 49 33 8 344 334 334 332 325 319 311 304 277 249 238 307 343 332 320 312 303 303 299 286 257 218 200 180 179 173 181 160 166 170 170 170 169 172 173 172 173 174 175 177 178 180 181 181 185
232 253 260 251 243 224 178 100 16 343 313 307 295 46 134 42 27 7 349 346 341 337 333 329 318 300 260 248 238 346 339 329 322 324 317 316 313 296 250 188 157 151 150 147 144 161 164 171 169 166 167 168 168 169 173 173 174 178 181 185 185 183 184
213 230 247 238 213 184 75 350 334 333 325 294 257 249 183 46 16 2 356 349 346 346 335 328 316 294 246 274 328 337 329 319 335 337 335 334 337 331 278 182 163 161 151 155 154 157 158 163 164 162 163 165 166 165 170 172 175 179 184 183 183 181 184
243 243 235 242 253 290 345 334 334 332 329 313 246 222 198 27 19 9 360 345 344 347 338 338 338 26 344 326 322 321 311 305 360 350 347 353 356 355 343 209 160 140 135 140 152 155 164 166 158 158 162 165 165 161 168 171 176 182 184 184 184 184 186
239 245 246 272 284 313 354 326 325 334 326 294 208 204 69 6 25 10 5 339 332 342 341 351 346 331 316 311 313 312 304 4 13 6 360 8 9 13 14 37 136 144 151 155 161 165 160 150 162 164 164 162 163 163 167 175 183 187 184 176 172 177 182
230 238 240 243 279 40 342 322 325 3 346 189 199 53 341 18 25 12 357 337 332 334 340 337 324 309 316 321 322 315 341 36 18 14 17 26 33 35 36 34 41 151 157 153 157 159 147 156 162 164 162 157 155 160 170 182 187 184 173 163 171 174 173
230 230 239 245 242 42 0 323 298 33 329 39 342 339 25 20 45 12 348 337 327 332 329 336 327 327 329 327 327 316 11 35 28 27 31 36 38 37 33 39 25 69 123 142 152 148 156 162 163 163 161 156 161 167 179 180 176 169 159 164 168 171 175
221 201 215 216 14 337 356 4 49 35 71 23 17 11 355 24 43 18 335 332 330 325 316 326 331 332 332 330 341 330 2 25 30 33 37 43 47 48 52 51 40 52 72 89 104 133 153 158 158 160 162 157 162 170 172 144 148 152 156 160 162 172 178
273 314 48 351 324 327 340 48 116 136 92 27 1 3 356 359 22 1 339 328 325 323 315 321 334 332 333 327 329 333 329 11 25 30 38 44 47 49 49 52 44 54 68 82 88 78 70 102 133 146 152 154 159 157 140 144 150 156 160 164 171 179 185
303 256 351 349 334 338 323 172 203 151 145 6 345 349 345 356 357 350 338 324 318 317 313 321 332 331 330 335 338 344 339 357 18 22 31 36 39 44 44 46 53 71 71 72 75 75 61 55 70 86 131 147 145 135 138 150 159 160 163 169 177 184 184
296 157 9 3 338 321 289 174 191 177 84 330 335 333 334 331 333 334 336 331 318 313 314 320 327 322 332 327 332 344 352 352 358 17 26 33 36 40 42 36 30 40 50 60 60 66 63 49 61 65 62 73 97 118 135 149 150 153 159 166 177 184 190
358 306 330 345 331 307 188 147 43 329 330 320 313 312 310 309 312 309 319 327 316 317 313 321 324 321 323 329 342 348 353 353 344 2 24 33 36 37 40 36 40 45 45 49 53 54 56 50 53 62 65 69 69 96 124 137 149 154 156 166 173 183 189
315 307 330 343 331 164 135 230 326 318 313 310 305 304 308 314 318 316 320 318 309 308 305 311 322 322 326 336 341 339 355 357 350 354 17 27 36 37 39 40 40 46 47 53 56 60 58 45 47 57 57 57 51 55 63 93 151 156 148 152 151 152 166
17 2 338 341 341 314 302 308 308 309 306 301 299 302 306 314 316 319 315 312 307 302 301 311 320 327 330 341 345 345 351 356 355 355 8 17 25 30 32 38 39 41 41 43 49 51 49 34 37 41 47 44 37 38 35 43 74 139 138 141 144 153 164
333 340 337 329 302 277 276 287 294 294 295 292 291 290 295 300 304 301 300 307 315 309 305 311 315 326 334 343 346 345 353 351 345 345 3 24 35 28 26 32 34 36 33 31 34 35 30 24 29 29 32 26 20 13 10 8 21 110 139 140 144 144 156
325 339 330 326 308 288 294 294 291 290 287 288 285 285 287 282 286 292 295 300 300 302 305 307 317 329 335 341 349 345 341 341 346 347 8 16 29 29 28 28 22 21 24 25 29 28 26 25 24 23 28 23 8 355 351 347 37 106 127 149 149 145 134
343 335 329 315 303 299 290 288 294 291 286 280 277 284 287 280 280 278 281 287 288 294 301 308 318 331 335 339 347 349 343 337 341 344 18 21 31 29 23 23 22 16 14 22 27 27 26 20 20 21 26 18 3 353 344 334 265 134 142 142 132 128 139